Time,TemperatureF,DewpointF,PressureIn,WindDirection,WindDirectionDegrees,WindSpeedMPH,WindSpeedGustMPH,Humidity,HourlyPrecipIn,Conditions,Clouds,dailyrainin,SoftwareType,DateUTC
2013-07-18 00:03:00,62.8,54.7,30.29,SSE,157,6.7,6.7,75,0.00,,,0.00,WeatherCatV1.20B785,2013-07-18 07:03:00,
2013-07-18 00:08:00,62.4,54.3,30.29,SE,135,0.9,0.9,75,0.00,,,0.00,WeatherCatV1.20B785,2013-07-18 07:08:00,
2013-07-18 00:14:00,62.4,54.3,30.29,SSE,157,2.0,2.0,75,0.00,,,0.00,WeatherCatV1.20B785,2013-07-18 07:14:00,
2013-07-18 00:19:00,62.2,54.2,30.29,South,180,1.6,1.6,75,0.00,,,0.00,WeatherCatV1.20B785,2013-07-18 07:19:00,
2013-07-18 00:24:00,62.2,54.5,30.29,South,180,4.0,4.0,76,0.00,,,0.00,WeatherCatV1.20B785,2013-07-18 07:24:00,
2013-07-18 00:30:00,62.1,54.4,30.29,SSE,157,2.7,2.7,76,0.00,,,0.00,WeatherCatV1.20B785,2013-07-18 07:30:00,
2013-07-18 00:35:00,61.9,54.2,30.29,SSE,157,1.3,1.3,76,0.00,,,0.00,WeatherCatV1.20B785,2013-07-18 07:35:00,
2013-07-18 00:40:00,61.9,54.2,30.29,SSE,157,2.0,2.0,76,0.00,,,0.00,WeatherCatV1.20B785,2013-07-18 07:40:00,
2013-07-18 00:45:00,61.7,54.4,30.29,South,180,2.2,2.2,77,0.00,,,0.00,WeatherCatV1.20B785,2013-07-18 07:45:00,
2013-07-18 00:50:00,61.5,54.2,30.29,South,180,3.1,3.1,77,0.00,,,0.00,WeatherCatV1.20B785,2013-07-18 07:50:00,
2013-07-18 00:55:00,61.5,54.2,30.29,SSE,157,1.8,1.8,77,0.00,,,0.00,WeatherCatV1.20B785,2013-07-18 07:55:00,
2013-07-18 01:04:00,61.5,54.2,30.29,SE,135,0.0,0.0,77,0.00,,,0.00,WeatherCatV1.20B785,2013-07-18 08:04:00,
2013-07-18 01:09:00,61.3,54.1,30.29,SSE,157,0.0,0.0,77,0.00,,,0.00,WeatherCatV1.20B785,2013-07-18 08:09:00,
2013-07-18 01:15:00,61.0,53.8,30.29,South,180,1.3,1.6,77,0.00,,,0.00,WeatherCatV1.20B785,2013-07-18 08:15:00,
2013-07-18 01:20:00,61.0,53.8,30.29,South,180,2.5,2.5,77,0.00,,,0.00,WeatherCatV1.20B785,2013-07-18 08:20:00,
2013-07-18 01:25:00,61.0,54.1,30.29,SSE,157,0.0,2.9,78,0.00,,,0.00,WeatherCatV1.20B785,2013-07-18 08:25:00,
2013-07-18 01:30:00,60.6,53.8,30.30,SSE,157,1.3,1.3,78,0.00,,,0.00,WeatherCatV1.20B785,2013-07-18 08:30:00,
2013-07-18 01:35:00,60.6,53.8,30.29,SE,135,2.0,2.0,78,0.00,,,0.00,WeatherCatV1.20B785,2013-07-18 08:35:00,
2013-07-18 01:40:00,60.6,53.8,30.29,SE,135,2.0,4.0,78,0.00,,,0.00,WeatherCatV1.20B785,2013-07-18 08:40:00,
2013-07-18 01:45:00,60.4,53.6,30.30,SSW,202,1.6,1.6,78,0.00,,,0.00,WeatherCatV1.20B785,2013-07-18 08:45:00,
2013-07-18 01:50:00,60.4,53.6,30.30,SE,135,0.0,0.0,78,0.00,,,0.00,WeatherCatV1.20B785,2013-07-18 08:50:00,
2013-07-18 01:55:00,60.4,53.6,30.29,SSE,157,2.0,2.0,78,0.00,,,0.00,WeatherCatV1.20B785,2013-07-18 08:55:00,
2013-07-18 02:09:00,60.4,53.6,30.30,ESE,112,1.6,1.6,78,0.00,,,0.00,WeatherCatV1.20B785,2013-07-18 09:09:00,
2013-07-18 02:14:00,60.1,53.6,30.30,South,180,3.4,3.4,79,0.00,,,0.00,WeatherCatV1.20B785,2013-07-18 09:14:00,
2013-07-18 02:19:00,59.9,53.4,30.30,SE,135,5.6,5.6,79,0.00,,,0.00,WeatherCatV1.20B785,2013-07-18 09:19:00,
2013-07-18 02:24:00,59.9,53.4,30.30,SSE,157,0.0,0.0,79,0.00,,,0.00,WeatherCatV1.20B785,2013-07-18 09:24:00,
2013-07-18 02:29:00,59.7,53.2,30.30,SSE,157,2.7,3.1,79,0.00,,,0.00,WeatherCatV1.20B785,2013-07-18 09:29:00,
2013-07-18 02:34:00,59.7,53.6,30.30,South,180,3.6,3.6,80,0.00,,,0.00,WeatherCatV1.20B785,2013-07-18 09:34:00,
2013-07-18 02:39:00,59.5,53.4,30.30,East,90,2.2,2.2,80,0.00,,,0.00,WeatherCatV1.20B785,2013-07-18 09:39:00,
2013-07-18 02:44:00,59.4,53.2,30.30,SE,135,2.2,3.8,80,0.00,,,0.00,WeatherCatV1.20B785,2013-07-18 09:44:00,
2013-07-18 02:49:00,59.5,53.4,30.30,South,180,3.4,3.4,80,0.00,,,0.00,WeatherCatV1.20B785,2013-07-18 09:49:00,
2013-07-18 02:54:00,59.2,53.1,30.30,South,180,3.6,3.6,80,0.00,,,0.00,WeatherCatV1.20B785,2013-07-18 09:54:00,
2013-07-18 03:18:00,59.2,-99.9,30.30,SSW,202,2.9,2.9,80,-99.99,,,0.00,WeatherCatV1.20B785,2013-07-18 10:18:00,
2013-07-18 03:23:00,58.8,53.0,30.31,SSW,202,3.4,4.5,81,0.00,,,0.00,WeatherCatV1.20B785,2013-07-18 10:23:00,
2013-07-18 03:28:00,58.8,53.0,30.31,SSW,202,2.7,2.7,81,0.00,,,0.00,WeatherCatV1.20B785,2013-07-18 10:28:00,
2013-07-18 03:33:00,58.8,53.0,30.30,SSE,157,3.6,3.6,81,0.00,,,0.00,WeatherCatV1.20B785,2013-07-18 10:33:00,
2013-07-18 03:38:00,58.8,53.0,30.31,South,180,3.6,3.6,81,0.00,,,0.00,WeatherCatV1.20B785,2013-07-18 10:38:00,
2013-07-18 03:44:00,58.8,53.0,30.30,SSE,157,3.8,3.8,81,0.00,,,0.00,WeatherCatV1.20B785,2013-07-18 10:44:00,
2013-07-18 03:49:00,58.8,53.0,30.30,SSE,157,2.9,2.9,81,0.00,,,0.00,WeatherCatV1.20B785,2013-07-18 10:49:00,
2013-07-18 03:54:00,58.6,52.8,30.30,South,180,2.7,2.7,81,0.00,,,0.00,WeatherCatV1.20B785,2013-07-18 10:54:00,
2013-07-18 04:08:00,58.6,52.8,30.30,South,180,6.0,6.0,81,0.00,,,0.00,WeatherCatV1.20B785,2013-07-18 11:08:00,
2013-07-18 04:13:00,58.5,53.0,30.30,SSE,157,6.0,6.0,82,0.00,,,0.00,WeatherCatV1.20B785,2013-07-18 11:13:00,
2013-07-18 04:18:00,58.5,53.0,30.30,SSE,157,4.0,4.0,82,0.00,,,0.00,WeatherCatV1.20B785,2013-07-18 11:18:00,
2013-07-18 04:23:00,58.5,53.0,30.30,South,180,0.9,2.2,82,0.00,,,0.00,WeatherCatV1.20B785,2013-07-18 11:23:00,
2013-07-18 04:28:00,58.3,52.8,30.30,SSE,157,4.2,4.2,82,0.00,,,0.00,WeatherCatV1.20B785,2013-07-18 11:28:00,
2013-07-18 04:33:00,58.3,52.8,30.31,SE,135,3.6,6.9,82,0.00,,,0.00,WeatherCatV1.20B785,2013-07-18 11:33:00,
2013-07-18 04:38:00,58.3,52.8,30.30,SSE,157,1.6,1.6,82,0.00,,,0.00,WeatherCatV1.20B785,2013-07-18 11:38:00,
2013-07-18 04:43:00,58.1,53.0,30.31,SSW,202,6.3,6.3,83,0.00,,,0.00,WeatherCatV1.20B785,2013-07-18 11:43:00,
2013-07-18 04:48:00,58.3,53.1,30.30,SSW,202,2.5,4.2,83,0.00,,,0.00,WeatherCatV1.20B785,2013-07-18 11:48:00,
2013-07-18 04:53:00,58.3,53.1,30.30,SSE,157,1.8,2.9,83,0.00,,,0.00,WeatherCatV1.20B785,2013-07-18 11:53:00,
2013-07-18 04:58:00,58.1,53.0,30.31,SSE,157,6.0,6.0,83,0.00,,,0.00,WeatherCatV1.20B785,2013-07-18 11:58:00,
2013-07-18 05:03:00,58.1,53.0,30.31,SE,135,3.8,3.8,83,0.00,,,0.00,WeatherCatV1.20B785,2013-07-18 12:03:00,
2013-07-18 05:09:00,58.1,53.0,30.31,South,180,2.7,2.7,83,0.00,,,0.00,WeatherCatV1.20B785,2013-07-18 12:09:00,
2013-07-18 05:14:00,58.1,53.0,30.31,SE,135,0.0,0.0,83,0.00,,,0.00,WeatherCatV1.20B785,2013-07-18 12:14:00,
2013-07-18 05:19:00,57.9,52.8,30.31,SSE,157,2.2,2.2,83,0.00,,,0.00,WeatherCatV1.20B785,2013-07-18 12:19:00,
2013-07-18 05:24:00,57.9,52.8,30.31,SE,135,0.0,0.0,83,0.00,,,0.00,WeatherCatV1.20B785,2013-07-18 12:24:00,
2013-07-18 05:29:00,57.9,52.6,30.32,South,180,0.0,0.0,83,0.00,,,0.00,WeatherCatV1.20B785,2013-07-18 12:29:00,
2013-07-18 05:34:00,57.7,52.6,30.32,SE,135,0.0,0.0,83,0.00,,,0.00,WeatherCatV1.20B785,2013-07-18 12:34:00,
2013-07-18 05:39:00,57.7,52.6,30.32,SW,225,1.3,1.3,83,0.00,,,0.00,WeatherCatV1.20B785,2013-07-18 12:39:00,
2013-07-18 05:44:00,57.6,52.6,30.32,SSE,157,0.0,0.0,83,0.00,,,0.00,WeatherCatV1.20B785,2013-07-18 12:44:00,
2013-07-18 05:49:00,57.7,52.6,30.32,ESE,112,0.0,1.8,83,0.00,,,0.00,WeatherCatV1.20B785,2013-07-18 12:49:00,
2013-07-18 05:54:00,57.6,52.4,30.32,SSE,157,1.6,1.6,83,0.00,,,0.00,WeatherCatV1.20B785,2013-07-18 12:54:00,
2013-07-18 05:59:00,57.7,52.6,30.32,SSE,157,0.0,2.2,83,0.00,,,0.00,WeatherCatV1.20B785,2013-07-18 12:59:00,
2013-07-18 06:04:00,57.7,52.6,30.32,ENE,67,0.0,0.0,83,0.00,,,0.00,WeatherCatV1.20B785,2013-07-18 13:04:00,
2013-07-18 06:09:00,57.7,52.6,30.33,SSE,157,0.0,0.0,83,0.00,,,0.00,WeatherCatV1.20B785,2013-07-18 13:09:00,
2013-07-18 06:14:00,57.7,52.6,30.33,SE,135,2.0,2.0,83,0.00,,,0.00,WeatherCatV1.20B785,2013-07-18 13:14:00,
2013-07-18 06:19:00,57.9,52.8,30.33,SSE,157,1.8,1.8,83,0.00,,,0.00,WeatherCatV1.20B785,2013-07-18 13:19:00,
2013-07-18 06:24:00,57.9,52.8,30.33,SSE,157,1.8,1.8,83,0.00,,,0.00,WeatherCatV1.20B785,2013-07-18 13:24:00,
2013-07-18 06:28:00,57.9,52.8,30.33,SE,135,0.0,0.0,83,0.00,,,0.00,WeatherCatV1.20B785,2013-07-18 13:28:00,
2013-07-18 06:33:00,57.9,52.8,30.33,SSE,157,2.5,2.5,83,0.00,,,0.00,WeatherCatV1.20B785,2013-07-18 13:33:00,
2013-07-18 06:38:00,57.9,52.8,30.34,SE,135,0.9,0.9,83,0.00,,,0.00,WeatherCatV1.20B785,2013-07-18 13:38:00,
2013-07-18 06:44:00,58.1,52.6,30.34,SE,135,1.3,3.1,82,0.00,,,0.00,WeatherCatV1.20B785,2013-07-18 13:44:00,
2013-07-18 06:49:00,58.3,52.8,30.34,SSE,157,0.0,0.0,82,0.00,,,0.00,WeatherCatV1.20B785,2013-07-18 13:49:00,
2013-07-18 06:54:00,58.3,52.8,30.34,SSW,202,3.1,3.1,82,0.00,,,0.00,WeatherCatV1.20B785,2013-07-18 13:54:00,
2013-07-18 06:59:00,58.6,52.8,30.34,SE,135,3.6,3.6,81,0.00,,,0.00,WeatherCatV1.20B785,2013-07-18 13:59:00,
2013-07-18 07:04:00,58.8,53.0,30.34,SE,135,0.0,3.8,81,0.00,,,0.00,WeatherCatV1.20B785,2013-07-18 14:04:00,
2013-07-18 07:09:00,58.8,53.0,30.34,ESE,112,2.0,2.0,81,0.00,,,0.00,WeatherCatV1.20B785,2013-07-18 14:09:00,
2013-07-18 07:14:00,58.8,53.0,30.34,SSE,157,3.1,3.1,81,0.00,,,0.00,WeatherCatV1.20B785,2013-07-18 14:14:00,
2013-07-18 07:19:00,58.8,52.7,30.34,SE,135,2.9,5.8,80,0.00,,,0.00,WeatherCatV1.20B785,2013-07-18 14:19:00,
2013-07-18 07:24:00,58.8,52.7,30.33,SSE,157,0.7,0.7,80,0.00,,,0.00,WeatherCatV1.20B785,2013-07-18 14:24:00,
2013-07-18 07:29:00,58.8,52.7,30.33,ESE,112,2.2,3.4,80,0.00,,,0.00,WeatherCatV1.20B785,2013-07-18 14:29:00,
2013-07-18 07:34:00,58.8,53.0,30.34,SSW,202,3.8,3.8,81,0.00,,,0.00,WeatherCatV1.20B785,2013-07-18 14:34:00,
2013-07-18 07:39:00,59.0,52.9,30.34,South,180,3.6,3.6,80,0.00,,,0.00,WeatherCatV1.20B785,2013-07-18 14:39:00,
2013-07-18 07:44:00,59.5,53.4,30.34,SE,135,3.8,3.8,80,0.00,,,0.00,WeatherCatV1.20B785,2013-07-18 14:44:00,
2013-07-18 07:49:00,59.7,53.6,30.34,ESE,112,0.9,0.9,80,0.00,,,0.00,WeatherCatV1.20B785,2013-07-18 14:49:00,
2013-07-18 07:54:00,59.9,53.8,30.34,SSE,157,2.9,2.9,80,0.00,,,0.00,WeatherCatV1.20B785,2013-07-18 14:54:00,
2013-07-18 07:59:00,60.1,53.6,30.34,SE,135,2.7,5.4,79,0.00,,,0.00,WeatherCatV1.20B785,2013-07-18 14:59:00,
2013-07-18 08:04:00,60.4,54.0,30.34,SSE,157,0.0,0.0,79,0.00,,,0.00,WeatherCatV1.20B785,2013-07-18 15:04:00,
2013-07-18 08:09:00,60.6,54.1,30.34,South,180,0.0,0.0,79,0.00,,,0.00,WeatherCatV1.20B785,2013-07-18 15:09:00,
2013-07-18 08:14:00,60.6,53.8,30.34,SSE,157,1.6,4.0,78,0.00,,,0.00,WeatherCatV1.20B785,2013-07-18 15:14:00,
2013-07-18 08:19:00,60.8,54.0,30.33,South,180,1.6,1.6,78,0.00,,,0.00,WeatherCatV1.20B785,2013-07-18 15:19:00,
2013-07-18 08:24:00,60.6,53.8,30.34,SE,135,2.0,2.0,78,0.00,,,0.00,WeatherCatV1.20B785,2013-07-18 15:24:00,
2013-07-18 08:29:00,61.0,54.1,30.34,ESE,112,2.0,4.2,78,0.00,,,0.00,WeatherCatV1.20B785,2013-07-18 15:29:00,
2013-07-18 08:34:00,61.0,54.1,30.34,SSE,157,0.0,0.0,78,0.00,,,0.00,WeatherCatV1.20B785,2013-07-18 15:34:00,
2013-07-18 08:39:00,61.2,54.3,30.34,SE,135,1.6,1.6,78,0.00,,,0.00,WeatherCatV1.20B785,2013-07-18 15:39:00,
2013-07-18 08:44:00,61.5,54.2,30.34,South,180,2.0,2.0,77,0.00,,,0.00,WeatherCatV1.20B785,2013-07-18 15:44:00,
2013-07-18 08:50:00,61.3,53.7,30.34,SSE,157,2.7,2.7,76,0.00,,,0.00,WeatherCatV1.20B785,2013-07-18 15:50:00,
2013-07-18 08:55:00,61.5,53.9,30.34,SSE,157,4.7,4.7,76,0.00,,,0.00,WeatherCatV1.20B785,2013-07-18 15:55:00,
2013-07-18 09:00:00,61.7,54.0,30.34,SE,135,2.2,2.2,76,0.00,,,0.00,WeatherCatV1.20B785,2013-07-18 16:00:00,
2013-07-18 09:05:00,61.9,53.8,30.34,SSE,157,1.3,3.8,75,0.00,,,0.00,WeatherCatV1.20B785,2013-07-18 16:05:00,
2013-07-18 09:10:00,62.4,54.3,30.33,South,180,1.6,1.6,75,0.00,,,0.00,WeatherCatV1.20B785,2013-07-18 16:10:00,
2013-07-18 09:15:00,62.8,54.7,30.33,SE,135,0.9,0.9,75,0.00,,,0.00,WeatherCatV1.20B785,2013-07-18 16:15:00,
2013-07-18 09:20:00,63.1,54.7,30.34,South,180,3.6,3.6,74,0.00,,,0.00,WeatherCatV1.20B785,2013-07-18 16:20:00,
2013-07-18 09:25:00,63.3,54.9,30.33,South,180,6.0,6.0,74,0.00,,,0.00,WeatherCatV1.20B785,2013-07-18 16:25:00,
2013-07-18 09:30:00,63.7,54.9,30.32,SE,135,0.0,0.0,73,0.00,,,0.00,WeatherCatV1.20B785,2013-07-18 16:30:00,
2013-07-18 09:35:00,63.7,54.9,30.33,SSE,157,4.0,4.0,73,0.00,,,0.00,WeatherCatV1.20B785,2013-07-18 16:35:00,
2013-07-18 09:40:00,63.7,54.5,30.32,SSE,157,4.0,4.0,72,0.00,,,0.00,WeatherCatV1.20B785,2013-07-18 16:40:00,
2013-07-18 09:45:00,63.7,54.9,30.33,SE,135,3.6,3.6,73,0.00,,,0.00,WeatherCatV1.20B785,2013-07-18 16:45:00,
2013-07-18 09:50:00,64.0,54.9,30.33,ESE,112,2.7,2.7,72,0.00,,,0.00,WeatherCatV1.20B785,2013-07-18 16:50:00,
2013-07-18 09:55:00,63.7,54.1,30.32,South,180,4.2,4.2,71,0.00,,,0.00,WeatherCatV1.20B785,2013-07-18 16:55:00,
2013-07-18 10:01:00,63.5,54.0,30.32,ESE,112,0.0,2.9,71,0.00,,,0.00,WeatherCatV1.20B785,2013-07-18 17:01:00,
2013-07-18 10:06:00,63.3,54.1,30.32,South,180,1.6,1.6,72,0.00,,,0.00,WeatherCatV1.20B785,2013-07-18 17:06:00,
2013-07-18 10:11:00,63.1,54.0,30.32,South,180,6.5,6.5,72,0.00,,,0.00,WeatherCatV1.20B785,2013-07-18 17:11:00,
2013-07-18 10:16:00,63.0,53.8,30.32,South,180,3.6,5.6,72,0.00,,,0.00,WeatherCatV1.20B785,2013-07-18 17:16:00,
2013-07-18 10:21:00,63.0,53.8,30.32,SW,225,4.9,4.9,72,0.00,,,0.00,WeatherCatV1.20B785,2013-07-18 17:21:00,
2013-07-18 10:26:00,63.1,54.0,30.32,South,180,3.8,3.8,72,0.00,,,0.00,WeatherCatV1.20B785,2013-07-18 17:26:00,
2013-07-18 10:31:00,63.3,54.1,30.31,SSE,157,2.5,4.2,72,0.00,,,0.00,WeatherCatV1.20B785,2013-07-18 17:31:00,
2013-07-18 10:36:00,63.7,54.5,30.31,SSE,157,6.5,6.5,72,0.00,,,0.00,WeatherCatV1.20B785,2013-07-18 17:36:00,
2013-07-18 10:41:00,63.7,54.5,30.32,SSE,157,5.1,5.1,72,0.00,,,0.00,WeatherCatV1.20B785,2013-07-18 17:41:00,
2013-07-18 10:46:00,63.7,54.5,30.32,South,180,3.1,3.1,72,0.00,,,0.00,WeatherCatV1.20B785,2013-07-18 17:46:00,
2013-07-18 10:51:00,64.0,54.9,30.31,NNE,22,0.0,0.0,72,0.00,,,0.00,WeatherCatV1.20B785,2013-07-18 17:51:00,
2013-07-18 10:56:00,64.0,54.9,30.31,South,180,7.4,7.4,72,0.00,,,0.00,WeatherCatV1.20B785,2013-07-18 17:56:00,
2013-07-18 11:01:00,64.2,54.7,30.31,SSE,157,2.5,2.5,71,0.00,,,0.00,WeatherCatV1.20B785,2013-07-18 18:01:00,
2013-07-18 11:07:00,64.6,55.0,30.31,South,180,6.5,6.5,71,0.00,,,0.00,WeatherCatV1.20B785,2013-07-18 18:07:00,
2013-07-18 11:12:00,64.6,55.0,30.31,ESE,112,2.5,2.5,71,0.00,,,0.00,WeatherCatV1.20B785,2013-07-18 18:12:00,
2013-07-18 11:17:00,64.8,55.2,30.31,SSE,157,3.1,3.1,71,0.00,,,0.00,WeatherCatV1.20B785,2013-07-18 18:17:00,
2013-07-18 11:22:00,64.8,54.8,30.31,SSE,157,3.4,3.4,70,0.00,,,0.00,WeatherCatV1.20B785,2013-07-18 18:22:00,
2013-07-18 11:27:00,65.1,55.3,30.31,SE,135,5.8,5.8,71,0.00,,,0.00,WeatherCatV1.20B785,2013-07-18 18:27:00,
2013-07-18 11:32:00,65.1,55.5,30.31,SSE,157,3.1,5.8,71,0.00,,,0.00,WeatherCatV1.20B785,2013-07-18 18:32:00,
2013-07-18 11:37:00,65.3,55.7,30.31,SE,135,0.0,0.0,71,0.00,,,0.00,WeatherCatV1.20B785,2013-07-18 18:37:00,
2013-07-18 11:42:00,65.3,55.3,30.31,SE,135,2.0,7.6,70,0.00,,,0.00,WeatherCatV1.20B785,2013-07-18 18:42:00,
2013-07-18 11:47:00,65.5,55.5,30.31,South,180,8.1,8.1,70,0.00,,,0.00,WeatherCatV1.20B785,2013-07-18 18:47:00,
2013-07-18 11:52:00,65.7,55.6,30.31,South,180,5.8,5.8,70,0.00,,,0.00,WeatherCatV1.20B785,2013-07-18 18:52:00,
2013-07-18 11:57:00,66.0,56.0,30.30,SSE,157,4.5,4.5,70,0.00,,,0.00,WeatherCatV1.20B785,2013-07-18 18:57:00,
2013-07-18 12:02:00,66.4,55.9,30.30,SSE,157,3.1,3.1,69,0.00,,,0.00,WeatherCatV1.20B785,2013-07-18 19:02:00,
2013-07-18 12:07:00,66.6,56.0,30.30,East,90,3.6,3.6,69,0.00,,,0.00,WeatherCatV1.20B785,2013-07-18 19:07:00,
2013-07-18 12:12:00,66.7,55.8,30.30,SE,135,1.3,2.2,68,0.00,,,0.00,WeatherCatV1.20B785,2013-07-18 19:12:00,
2013-07-18 12:17:00,66.9,56.0,30.30,ESE,112,0.0,0.0,68,0.00,,,0.00,WeatherCatV1.20B785,2013-07-18 19:17:00,
2013-07-18 12:22:00,67.1,56.2,30.30,SSE,157,3.1,3.1,68,0.00,,,0.00,WeatherCatV1.20B785,2013-07-18 19:22:00,
2013-07-18 12:27:00,67.3,56.3,30.30,ESE,112,2.2,2.2,68,0.00,,,0.00,WeatherCatV1.20B785,2013-07-18 19:27:00,
2013-07-18 12:32:00,67.6,56.7,30.29,SE,135,4.2,4.2,68,0.00,,,0.00,WeatherCatV1.20B785,2013-07-18 19:32:00,
2013-07-18 12:37:00,67.8,56.4,30.29,North,0,0.0,0.0,67,0.00,,,0.00,WeatherCatV1.20B785,2013-07-18 19:37:00,
2013-07-18 12:42:00,68.2,56.8,30.29,SSE,157,3.1,6.3,67,0.00,,,0.00,WeatherCatV1.20B785,2013-07-18 19:42:00,
2013-07-18 12:47:00,68.4,57.0,30.29,SE,135,2.0,2.0,67,0.00,,,0.00,WeatherCatV1.20B785,2013-07-18 19:47:00,
2013-07-18 12:52:00,68.7,57.3,30.29,South,180,2.5,2.5,67,0.00,,,0.00,WeatherCatV1.20B785,2013-07-18 19:52:00,
2013-07-18 12:57:00,69.1,57.2,30.29,SSE,157,2.5,2.5,66,0.00,,,0.00,WeatherCatV1.20B785,2013-07-18 19:57:00,
2013-07-18 13:02:00,69.6,57.7,30.29,SSE,157,4.0,4.0,66,0.00,,,0.00,WeatherCatV1.20B785,2013-07-18 20:02:00,
2013-07-18 13:07:00,69.6,57.7,30.28,WSW,247,0.0,0.0,66,0.00,,,0.00,WeatherCatV1.20B785,2013-07-18 20:07:00,
2013-07-18 13:12:00,70.0,57.6,30.27,South,180,6.7,6.7,65,0.00,,,0.00,WeatherCatV1.20B785,2013-07-18 20:12:00,
2013-07-18 13:17:00,70.0,57.2,30.28,SE,135,0.0,0.0,64,0.00,,,0.00,WeatherCatV1.20B785,2013-07-18 20:17:00,
2013-07-18 13:22:00,70.2,57.8,30.28,SSE,157,4.0,4.0,65,0.00,,,0.00,WeatherCatV1.20B785,2013-07-18 20:22:00,
2013-07-18 13:27:00,70.5,57.3,30.27,SSW,202,2.9,2.9,63,0.00,,,0.00,WeatherCatV1.20B785,2013-07-18 20:27:00,
2013-07-18 13:32:00,70.5,57.7,30.27,South,180,4.0,4.0,64,0.00,,,0.00,WeatherCatV1.20B785,2013-07-18 20:32:00,
2013-07-18 13:37:00,70.5,57.3,30.27,South,180,0.7,0.7,63,0.00,,,0.00,WeatherCatV1.20B785,2013-07-18 20:37:00,
2013-07-18 13:42:00,71.1,57.8,30.27,SSW,202,5.1,5.1,63,0.00,,,0.00,WeatherCatV1.20B785,2013-07-18 20:42:00,
2013-07-18 13:47:00,71.4,57.7,30.27,SSW,202,4.9,5.1,62,0.00,,,0.00,WeatherCatV1.20B785,2013-07-18 20:47:00,
2013-07-18 13:52:00,71.4,57.7,30.26,SSE,157,4.5,4.5,62,0.00,,,0.00,WeatherCatV1.20B785,2013-07-18 20:52:00,
2013-07-18 13:57:00,72.0,58.2,30.26,ESE,112,0.0,3.4,62,0.00,,,0.00,WeatherCatV1.20B785,2013-07-18 20:57:00,
2013-07-18 14:02:00,72.1,58.4,30.26,SSW,202,4.0,5.8,62,0.00,,,0.00,WeatherCatV1.20B785,2013-07-18 21:02:00,
2013-07-18 14:06:00,72.3,58.5,30.26,SSW,202,4.5,4.5,62,0.00,,,0.00,WeatherCatV1.20B785,2013-07-18 21:06:00,
2013-07-18 14:11:00,72.5,57.8,30.26,South,180,3.8,3.8,60,0.00,,,0.00,WeatherCatV1.20B785,2013-07-18 21:11:00,
2013-07-18 14:16:00,72.7,58.4,30.26,South,180,3.8,3.8,61,0.00,,,0.00,WeatherCatV1.20B785,2013-07-18 21:16:00,
2013-07-18 14:21:00,73.2,58.9,30.26,SSE,157,1.6,1.6,61,0.00,,,0.00,WeatherCatV1.20B785,2013-07-18 21:21:00,
2013-07-18 14:26:00,73.2,58.5,30.26,South,180,0.0,5.1,60,0.00,,,0.00,WeatherCatV1.20B785,2013-07-18 21:26:00,
2013-07-18 14:31:00,73.6,58.3,30.25,SSW,202,6.0,6.0,59,0.00,,,0.00,WeatherCatV1.20B785,2013-07-18 21:31:00,
2013-07-18 14:36:00,73.6,57.8,30.25,South,180,2.0,2.0,58,0.00,,,0.00,WeatherCatV1.20B785,2013-07-18 21:36:00,
2013-07-18 14:41:00,73.9,58.2,30.25,SE,135,6.0,6.0,59,0.00,,,0.00,WeatherCatV1.20B785,2013-07-18 21:41:00,
2013-07-18 14:46:00,74.1,58.9,30.24,SSW,202,3.8,3.8,59,0.00,,,0.00,WeatherCatV1.20B785,2013-07-18 21:46:00,
2013-07-18 14:51:00,74.3,58.5,30.24,SSE,157,0.0,0.0,58,0.00,,,0.00,WeatherCatV1.20B785,2013-07-18 21:51:00,
2013-07-18 14:56:00,74.5,58.2,30.24,SE,135,4.0,4.0,58,0.00,,,0.00,WeatherCatV1.20B785,2013-07-18 21:56:00,
2013-07-18 15:01:00,74.5,58.2,30.24,SE,135,2.9,3.6,57,0.00,,,0.00,WeatherCatV1.20B785,2013-07-18 22:01:00,
2013-07-18 15:06:00,74.5,58.7,30.24,SSE,157,2.5,2.5,58,0.00,,,0.00,WeatherCatV1.20B785,2013-07-18 22:06:00,
2013-07-18 15:11:00,75.0,58.8,30.23,South,180,6.0,6.0,57,0.00,,,0.00,WeatherCatV1.20B785,2013-07-18 22:11:00,
2013-07-18 15:16:00,75.0,58.2,30.23,WSW,247,0.7,3.8,56,0.00,,,0.00,WeatherCatV1.20B785,2013-07-18 22:16:00,
2013-07-18 15:22:00,75.0,58.2,30.23,SE,135,3.1,3.1,56,0.00,,,0.00,WeatherCatV1.20B785,2013-07-18 22:22:00,
2013-07-18 15:27:00,75.4,58.1,30.22,South,180,4.0,4.0,55,0.00,,,0.00,WeatherCatV1.20B785,2013-07-18 22:27:00,
2013-07-18 15:32:00,75.4,58.1,30.22,South,180,4.0,4.0,55,0.00,,,0.00,WeatherCatV1.20B785,2013-07-18 22:32:00,
2013-07-18 15:37:00,75.4,58.1,30.22,South,180,2.2,2.2,55,0.00,,,0.00,WeatherCatV1.20B785,2013-07-18 22:37:00,
2013-07-18 15:42:00,75.7,58.9,30.21,South,180,3.1,3.1,56,0.00,,,0.00,WeatherCatV1.20B785,2013-07-18 22:42:00,
2013-07-18 15:47:00,75.9,58.6,30.22,SSW,202,4.2,4.2,55,0.00,,,0.00,WeatherCatV1.20B785,2013-07-18 22:47:00,
2013-07-18 15:52:00,76.1,58.7,30.21,SSE,157,4.2,4.2,55,0.00,,,0.00,WeatherCatV1.20B785,2013-07-18 22:52:00,
2013-07-18 15:57:00,76.3,58.4,30.21,South,180,4.2,4.2,54,0.00,,,0.00,WeatherCatV1.20B785,2013-07-18 22:57:00,
2013-07-18 16:02:00,76.6,58.7,30.21,SSE,157,3.6,3.6,54,0.00,,,0.00,WeatherCatV1.20B785,2013-07-18 23:02:00,
2013-07-18 16:07:00,76.6,58.2,30.21,SSE,157,0.7,0.7,53,0.00,,,0.00,WeatherCatV1.20B785,2013-07-18 23:07:00,
2013-07-18 16:12:00,76.8,58.4,30.20,SSE,157,5.4,6.3,53,0.00,,,0.00,WeatherCatV1.20B785,2013-07-18 23:12:00,
2013-07-18 16:17:00,76.8,57.9,30.20,SSE,157,4.0,4.0,52,0.00,,,0.00,WeatherCatV1.20B785,2013-07-18 23:17:00,
2013-07-18 16:22:00,77.2,57.2,30.20,SSE,157,0.9,2.5,50,0.00,,,0.00,WeatherCatV1.20B785,2013-07-18 23:22:00,
2013-07-18 16:27:00,77.2,57.7,30.20,SSE,157,3.4,3.4,51,0.00,,,0.00,WeatherCatV1.20B785,2013-07-18 23:27:00,
2013-07-18 16:32:00,77.4,57.3,30.20,SSE,157,5.4,5.4,50,0.00,,,0.00,WeatherCatV1.20B785,2013-07-18 23:32:00,
2013-07-18 16:37:00,77.5,57.5,30.20,SSE,157,3.1,3.6,50,0.00,,,0.00,WeatherCatV1.20B785,2013-07-18 23:37:00,
2013-07-18 16:42:00,77.7,57.1,30.19,SSE,157,5.1,6.7,49,0.00,,,0.00,WeatherCatV1.20B785,2013-07-18 23:42:00,
2013-07-18 16:47:00,77.7,57.1,30.19,South,180,1.3,3.1,49,0.00,,,0.00,WeatherCatV1.20B785,2013-07-18 23:47:00,
2013-07-18 16:52:00,77.7,57.1,30.20,South,180,9.8,9.8,49,0.00,,,0.00,WeatherCatV1.20B785,2013-07-18 23:52:00,
2013-07-18 16:57:00,77.9,57.8,30.20,South,180,5.4,5.4,50,0.00,,,0.00,WeatherCatV1.20B785,2013-07-18 23:57:00,
2013-07-18 17:02:00,78.1,57.4,30.20,SSE,157,2.5,2.5,49,0.00,,,0.00,WeatherCatV1.20B785,2013-07-19 00:02:00,
2013-07-18 17:07:00,78.1,57.4,30.19,SE,135,5.4,5.4,49,0.00,,,0.00,WeatherCatV1.20B785,2013-07-19 00:07:00,
2013-07-18 17:09:00,78.1,57.4,30.20,South,180,3.6,5.4,49,0.00,,,0.00,WeatherCatV1.20B785,2013-07-19 00:09:00,
2013-07-18 17:14:00,78.3,57.5,30.19,SSE,157,5.6,5.6,49,0.00,,,0.00,WeatherCatV1.20B785,2013-07-19 00:14:00,
2013-07-18 17:19:00,78.4,58.3,30.19,ESE,112,0.0,0.0,50,0.00,,,0.00,WeatherCatV1.20B785,2013-07-19 00:19:00,
2013-07-18 17:24:00,78.4,58.3,30.18,SE,135,5.4,5.4,50,0.00,,,0.00,WeatherCatV1.20B785,2013-07-19 00:24:00,
2013-07-18 17:29:00,78.4,58.3,30.18,SSW,202,6.9,6.9,50,0.00,,,0.00,WeatherCatV1.20B785,2013-07-19 00:29:00,
2013-07-18 17:34:00,78.4,58.8,30.18,SSE,157,3.8,3.8,51,0.00,,,0.00,WeatherCatV1.20B785,2013-07-19 00:34:00,
2013-07-18 17:39:00,78.6,59.5,30.18,SSE,157,2.5,5.1,52,0.00,,,0.00,WeatherCatV1.20B785,2013-07-19 00:39:00,
2013-07-18 17:44:00,78.6,59.5,30.18,SSE,157,4.5,4.5,52,0.00,,,0.00,WeatherCatV1.20B785,2013-07-19 00:44:00,
2013-07-18 17:49:00,78.6,59.5,30.18,SSE,157,3.6,3.6,52,0.00,,,0.00,WeatherCatV1.20B785,2013-07-19 00:49:00,
2013-07-18 17:54:00,78.6,59.5,30.18,SSE,157,4.7,5.1,52,0.00,,,0.00,WeatherCatV1.20B785,2013-07-19 00:54:00,
2013-07-18 17:59:00,79.0,59.8,30.18,East,90,0.0,0.0,52,0.00,,,0.00,WeatherCatV1.20B785,2013-07-19 00:59:00,
2013-07-18 18:04:00,79.0,60.4,30.18,SE,135,4.0,4.0,53,0.00,,,0.00,WeatherCatV1.20B785,2013-07-19 01:04:00,
2013-07-18 18:09:00,79.0,60.4,30.18,SSE,157,3.1,3.4,53,0.00,,,0.00,WeatherCatV1.20B785,2013-07-19 01:09:00,
2013-07-18 18:15:00,79.2,60.5,30.18,South,180,3.8,3.8,53,0.00,,,0.00,WeatherCatV1.20B785,2013-07-19 01:15:00,
2013-07-18 18:20:00,79.3,60.5,30.18,SSE,157,2.5,2.5,53,0.00,,,0.00,WeatherCatV1.20B785,2013-07-19 01:20:00,
2013-07-18 18:25:00,79.0,60.4,30.17,ENE,67,0.0,0.0,53,0.00,,,0.00,WeatherCatV1.20B785,2013-07-19 01:25:00,
2013-07-18 18:30:00,79.0,60.9,30.17,SSE,157,3.1,3.1,54,0.00,,,0.00,WeatherCatV1.20B785,2013-07-19 01:30:00,
2013-07-18 18:35:00,78.8,60.7,30.17,SSE,157,10.3,10.3,54,0.00,,,0.00,WeatherCatV1.20B785,2013-07-19 01:35:00,
2013-07-18 18:40:00,79.0,60.4,30.17,SSE,157,1.8,1.8,53,0.00,,,0.00,WeatherCatV1.20B785,2013-07-19 01:40:00,
2013-07-18 18:45:00,79.0,60.4,30.17,SSW,202,6.3,6.3,53,0.00,,,0.00,WeatherCatV1.20B785,2013-07-19 01:45:00,
2013-07-18 18:51:00,79.0,60.9,30.17,SSE,157,3.1,3.1,54,0.00,,,0.00,WeatherCatV1.20B785,2013-07-19 01:51:00,
2013-07-18 18:56:00,79.0,60.9,30.17,SSE,157,5.1,5.1,54,0.00,,,0.00,WeatherCatV1.20B785,2013-07-19 01:56:00,
2013-07-18 19:01:00,79.2,61.0,30.17,East,90,3.8,3.8,54,0.00,,,0.00,WeatherCatV1.20B785,2013-07-19 02:01:00,
2013-07-18 19:06:00,79.2,61.0,30.17,SSE,157,1.6,9.2,54,0.00,,,0.00,WeatherCatV1.20B785,2013-07-19 02:06:00,
2013-07-18 19:11:00,79.2,61.0,30.17,SSW,202,5.6,7.2,54,0.00,,,0.00,WeatherCatV1.20B785,2013-07-19 02:11:00,
2013-07-18 19:16:00,79.5,60.8,30.17,South,180,4.7,4.9,53,0.00,,,0.00,WeatherCatV1.20B785,2013-07-19 02:16:00,
2013-07-18 19:21:00,80.8,61.5,30.17,South,180,2.7,2.7,52,0.00,,,0.00,WeatherCatV1.20B785,2013-07-19 02:21:00,
2013-07-18 19:26:00,82.9,62.6,30.17,North,0,2.2,2.2,52,0.00,,,0.00,WeatherCatV1.20B785,2013-07-19 02:26:00,
2013-07-18 19:31:00,85.8,63.9,30.17,SSW,202,2.9,6.0,48,0.00,,,0.00,WeatherCatV1.20B785,2013-07-19 02:31:00,
2013-07-18 19:36:00,85.3,63.4,30.17,South,180,4.5,4.5,48,0.00,,,0.00,WeatherCatV1.20B785,2013-07-19 02:36:00,
2013-07-18 19:41:00,82.0,61.6,30.18,South,180,3.8,5.4,50,0.00,,,0.00,WeatherCatV1.20B785,2013-07-19 02:41:00,
2013-07-18 19:46:00,80.4,61.1,30.17,SE,135,0.0,0.0,52,0.00,,,0.00,WeatherCatV1.20B785,2013-07-19 02:46:00,
2013-07-18 19:51:00,79.3,60.7,30.17,SSE,157,4.7,4.7,53,0.00,,,0.00,WeatherCatV1.20B785,2013-07-19 02:51:00,
2013-07-18 19:56:00,78.1,60.0,30.17,SE,135,3.1,3.6,54,0.00,,,0.00,WeatherCatV1.20B785,2013-07-19 02:56:00,
2013-07-18 20:01:00,77.5,60.0,30.17,South,180,6.0,6.0,55,0.00,,,0.00,WeatherCatV1.20B785,2013-07-19 03:01:00,
2013-07-18 20:06:00,77.0,60.0,30.17,South,180,2.5,2.5,56,0.00,,,0.00,WeatherCatV1.20B785,2013-07-19 03:06:00,
2013-07-18 20:12:00,76.5,60.1,30.17,SE,135,2.9,3.8,57,0.00,,,0.00,WeatherCatV1.20B785,2013-07-19 03:12:00,
2013-07-18 20:17:00,76.1,59.7,30.17,ESE,112,2.0,2.0,57,0.00,,,0.00,WeatherCatV1.20B785,2013-07-19 03:17:00,
2013-07-18 20:22:00,75.6,59.8,30.18,ESE,112,2.0,2.0,58,0.00,,,0.00,WeatherCatV1.20B785,2013-07-19 03:22:00,
2013-07-18 20:27:00,75.4,59.6,30.18,South,180,6.7,6.7,58,0.00,,,0.00,WeatherCatV1.20B785,2013-07-19 03:27:00,
2013-07-18 20:32:00,75.0,59.8,30.18,SSW,202,2.0,2.0,59,0.00,,,0.00,WeatherCatV1.20B785,2013-07-19 03:32:00,
2013-07-18 20:37:00,74.5,59.2,30.18,South,180,2.2,2.2,59,0.00,,,0.00,WeatherCatV1.20B785,2013-07-19 03:37:00,
2013-07-18 20:38:00,74.5,59.2,30.18,South,180,2.2,2.2,59,0.00,,,0.00,WeatherCatV1.20B785,2013-07-19 03:38:00,
2013-07-18 20:43:00,74.3,59.5,30.18,SSW,202,5.4,5.4,60,0.00,,,0.00,WeatherCatV1.20B785,2013-07-19 03:43:00,
2013-07-18 20:48:00,73.9,59.6,30.18,SSW,202,2.2,4.9,61,0.00,,,0.00,WeatherCatV1.20B785,2013-07-19 03:48:00,
2013-07-18 20:53:00,73.8,59.4,30.18,SSE,157,4.7,4.7,61,0.00,,,0.00,WeatherCatV1.20B785,2013-07-19 03:53:00,
2013-07-18 20:58:00,73.6,59.2,30.18,South,180,0.7,0.7,61,0.00,,,0.00,WeatherCatV1.20B785,2013-07-19 03:58:00,
2013-07-18 21:01:00,73.2,59.4,30.18,South,180,1.8,2.5,62,0.00,,,0.00,WeatherCatV1.20B785,2013-07-19 04:01:00,
2013-07-18 21:02:00,73.2,59.4,30.18,South,180,1.8,1.8,62,0.00,,,0.00,WeatherCatV1.20B785,2013-07-19 04:02:00,
2013-07-18 21:05:00,73.2,59.4,30.18,South,180,3.1,3.8,62,0.00,,,0.00,WeatherCatV1.20B785,2013-07-19 04:05:00,
2013-07-18 21:10:00,73.0,59.7,30.18,SE,135,2.0,2.0,63,0.00,,,0.00,WeatherCatV1.20B785,2013-07-19 04:10:00,
2013-07-18 21:15:00,72.7,59.5,30.18,SSE,157,3.1,3.1,63,0.00,,,0.00,WeatherCatV1.20B785,2013-07-19 04:15:00,
2013-07-18 21:20:00,72.5,59.1,30.19,South,180,2.0,2.0,63,0.00,,,0.00,WeatherCatV1.20B785,2013-07-19 04:20:00,
2013-07-18 21:25:00,72.3,59.0,30.19,South,180,2.5,2.5,63,0.00,,,0.00,WeatherCatV1.20B785,2013-07-19 04:25:00,
2013-07-18 21:30:00,72.1,58.8,30.19,SSE,157,0.0,0.0,63,0.00,,,0.00,WeatherCatV1.20B785,2013-07-19 04:30:00,
2013-07-18 21:35:00,71.8,58.9,30.20,SSW,202,0.0,2.9,64,0.00,,,0.00,WeatherCatV1.20B785,2013-07-19 04:35:00,
2013-07-18 21:40:00,71.4,59.0,30.20,SE,135,5.6,5.6,65,0.00,,,0.00,WeatherCatV1.20B785,2013-07-19 04:40:00,
2013-07-18 21:45:00,71.4,59.0,30.20,SSE,157,1.3,1.3,65,0.00,,,0.00,WeatherCatV1.20B785,2013-07-19 04:45:00,
2013-07-18 21:50:00,71.4,59.0,30.20,SSE,157,2.7,2.7,65,0.00,,,0.00,WeatherCatV1.20B785,2013-07-19 04:50:00,
2013-07-18 21:55:00,71.2,59.2,30.20,South,180,3.8,3.8,66,0.00,,,0.00,WeatherCatV1.20B785,2013-07-19 04:55:00,
2013-07-18 22:00:00,70.9,58.9,30.20,South,180,3.1,3.1,66,0.00,,,0.00,WeatherCatV1.20B785,2013-07-19 05:00:00,
2013-07-18 22:05:00,70.7,58.8,30.20,WSW,247,0.0,0.0,66,0.00,,,0.00,WeatherCatV1.20B785,2013-07-19 05:05:00,
2013-07-18 22:10:00,70.5,59.0,30.20,South,180,1.8,1.8,67,0.00,,,0.00,WeatherCatV1.20B785,2013-07-19 05:10:00,
2013-07-18 22:15:00,70.3,58.8,30.21,South,180,0.0,0.0,67,0.00,,,0.00,WeatherCatV1.20B785,2013-07-19 05:15:00,
2013-07-18 22:20:00,70.0,58.5,30.21,ESE,112,0.0,0.0,67,0.00,,,0.00,WeatherCatV1.20B785,2013-07-19 05:20:00,
2013-07-18 22:25:00,69.6,57.7,30.21,ENE,67,0.0,0.0,66,0.00,,,0.00,WeatherCatV1.20B785,2013-07-19 05:25:00,
2013-07-18 22:30:00,69.1,58.0,30.21,SSE,157,0.0,0.0,68,0.00,,,0.00,WeatherCatV1.20B785,2013-07-19 05:30:00,
2013-07-18 22:35:00,68.9,58.3,30.21,South,180,0.0,0.0,69,0.00,,,0.00,WeatherCatV1.20B785,2013-07-19 05:35:00,
2013-07-18 22:40:00,68.5,58.0,30.21,SSW,202,0.0,0.0,69,0.00,,,0.00,WeatherCatV1.20B785,2013-07-19 05:40:00,
2013-07-18 22:45:00,68.2,57.7,30.21,SSE,157,0.0,0.0,69,0.00,,,0.00,WeatherCatV1.20B785,2013-07-19 05:45:00,
2013-07-18 22:50:00,68.0,57.9,30.21,East,90,0.0,0.0,70,0.00,,,0.00,WeatherCatV1.20B785,2013-07-19 05:50:00,
2013-07-18 22:55:00,67.8,57.7,30.21,South,180,1.3,1.3,70,0.00,,,0.00,WeatherCatV1.20B785,2013-07-19 05:55:00,
2013-07-18 23:10:00,67.6,57.9,30.21,South,180,2.0,2.0,71,0.00,,,0.00,WeatherCatV1.20B785,2013-07-19 06:10:00,
2013-07-18 23:15:00,66.7,57.4,30.21,SSE,157,1.3,2.0,72,0.00,,,0.00,WeatherCatV1.20B785,2013-07-19 06:15:00,
2013-07-18 23:20:00,66.7,57.4,30.22,SSE,157,2.5,2.5,72,0.00,,,0.00,WeatherCatV1.20B785,2013-07-19 06:20:00,
2013-07-18 23:25:00,66.6,57.2,30.22,South,180,2.0,2.0,72,0.00,,,0.00,WeatherCatV1.20B785,2013-07-19 06:25:00,
2013-07-18 23:30:00,66.4,57.2,30.22,ESE,112,0.0,3.8,72,0.00,,,0.00,WeatherCatV1.20B785,2013-07-19 06:30:00,
2013-07-18 23:35:00,66.0,56.7,30.22,SSE,157,2.2,2.2,72,0.00,,,0.00,WeatherCatV1.20B785,2013-07-19 06:35:00,
2013-07-18 23:40:00,65.8,56.9,30.22,SE,135,2.2,2.2,73,0.00,,,0.00,WeatherCatV1.20B785,2013-07-19 06:40:00,
2013-07-18 23:45:00,65.5,56.8,30.23,ESE,112,0.0,0.0,73,0.00,,,0.00,WeatherCatV1.20B785,2013-07-19 06:45:00,
2013-07-18 23:50:00,65.3,56.4,30.23,South,180,0.0,0.0,73,0.00,,,0.00,WeatherCatV1.20B785,2013-07-19 06:50:00,
2013-07-18 23:55:00,65.1,56.2,30.22,SSE,157,1.3,1.3,73,0.00,,,0.00,WeatherCatV1.20B785,2013-07-19 06:55:00,